Time,TemperatureF,DewpointF,PressureIn,WindDirection,WindDirectionDegrees,WindSpeedMPH,WindSpeedGustMPH,Humidity,HourlyPrecipIn,Conditions,Clouds,dailyrainin,SoftwareType,DateUTC
2013-02-10 00:04:00,71.5,59.0,30.18,East,81,7.0,16.0,66,0.00,,,0.00,weatherlink.com 1.10,2013-02-10 05:04:00,
2013-02-10 00:19:00,71.5,59.0,30.18,East,96,9.0,14.0,66,0.00,,,0.00,weatherlink.com 1.10,2013-02-10 05:19:00,
2013-02-10 00:34:00,71.5,59.0,30.18,East,85,14.0,15.0,65,0.00,,,0.00,weatherlink.com 1.10,2013-02-10 05:34:00,
2013-02-10 00:49:00,71.5,59.0,30.18,East,87,11.0,17.0,66,0.00,,,0.00,weatherlink.com 1.10,2013-02-10 05:49:00,
2013-02-10 01:04:00,71.5,59.0,30.17,ENE,68,13.0,17.0,66,0.00,,,0.00,weatherlink.com 1.10,2013-02-10 06:04:00,
2013-02-10 01:19:00,71.5,59.0,30.17,ESE,110,1.0,18.0,65,0.00,,,0.00,weatherlink.com 1.10,2013-02-10 06:19:00,
2013-02-10 01:34:00,71.4,59.0,30.16,ESE,119,5.0,17.0,65,0.00,,,0.00,weatherlink.com 1.10,2013-02-10 06:34:00,
2013-02-10 01:49:00,71.4,59.0,30.16,East,97,1.0,16.0,65,0.00,,,0.00,weatherlink.com 1.10,2013-02-10 06:49:00,
2013-02-10 02:04:00,71.4,59.0,30.16,East,83,1.0,13.0,66,0.00,,,0.00,weatherlink.com 1.10,2013-02-10 07:04:00,
2013-02-10 02:19:00,71.2,59.0,30.16,East,83,0.0,16.0,66,0.00,,,0.00,weatherlink.com 1.10,2013-02-10 07:19:00,
2013-02-10 02:34:00,71.4,59.0,30.16,East,101,10.0,16.0,65,0.00,,,0.00,weatherlink.com 1.10,2013-02-10 07:34:00,
2013-02-10 02:49:00,71.2,60.0,30.16,ENE,77,5.0,9.0,67,0.00,,,0.00,weatherlink.com 1.10,2013-02-10 07:49:00,
2013-02-10 03:04:00,71.0,60.0,30.16,ENE,65,1.0,8.0,68,0.00,,,0.00,weatherlink.com 1.10,2013-02-10 08:04:00,
2013-02-10 03:19:00,71.2,61.0,30.16,ESE,102,0.0,10.0,69,0.00,,,0.00,weatherlink.com 1.10,2013-02-10 08:19:00,
2013-02-10 03:34:00,71.4,61.0,30.16,East,85,2.0,16.0,69,0.00,,,0.00,weatherlink.com 1.10,2013-02-10 08:34:00,
2013-02-10 03:49:00,71.4,61.0,30.16,ESE,117,2.0,16.0,69,0.00,,,0.00,weatherlink.com 1.10,2013-02-10 08:49:00,
2013-02-10 04:04:00,71.4,61.0,30.16,ESE,102,0.0,13.0,69,0.00,,,0.00,weatherlink.com 1.10,2013-02-10 09:04:00,
2013-02-10 04:19:00,71.5,61.0,30.16,East,100,0.0,10.0,70,0.00,,,0.00,weatherlink.com 1.10,2013-02-10 09:19:00,
2013-02-10 04:34:00,71.5,60.0,30.15,ESE,109,2.0,10.0,68,0.00,,,0.00,weatherlink.com 1.10,2013-02-10 09:34:00,
2013-02-10 04:49:00,71.7,60.0,30.16,East,98,1.0,10.0,67,0.00,,,0.00,weatherlink.com 1.10,2013-02-10 09:49:00,
2013-02-10 05:04:00,71.9,60.0,30.16,East,80,0.0,14.0,66,0.00,,,0.00,weatherlink.com 1.10,2013-02-10 10:04:00,
2013-02-10 05:19:00,71.7,59.0,30.16,East,86,8.0,17.0,65,0.00,,,0.00,weatherlink.com 1.10,2013-02-10 10:19:00,
2013-02-10 05:34:00,71.9,59.0,30.16,East,98,3.0,18.0,64,0.00,,,0.00,weatherlink.com 1.10,2013-02-10 10:34:00,
2013-02-10 05:49:00,71.7,59.0,30.16,East,98,3.0,13.0,65,0.00,,,0.00,weatherlink.com 1.10,2013-02-10 10:49:00,
2013-02-10 06:04:00,71.7,59.0,30.17,East,88,11.0,15.0,64,0.00,,,0.00,weatherlink.com 1.10,2013-02-10 11:04:00,
2013-02-10 06:19:00,71.7,59.0,30.18,East,98,0.0,13.0,64,0.00,,,0.00,weatherlink.com 1.10,2013-02-10 11:19:00,
2013-02-10 06:34:00,71.7,58.0,30.18,East,87,6.0,14.0,63,0.00,,,0.00,weatherlink.com 1.10,2013-02-10 11:34:00,
2013-02-10 06:49:00,71.7,58.0,30.19,East,90,5.0,15.0,63,0.00,,,0.00,weatherlink.com 1.10,2013-02-10 11:49:00,
2013-02-10 07:04:00,71.5,58.0,30.19,East,99,5.0,13.0,63,0.00,,,0.00,weatherlink.com 1.10,2013-02-10 12:04:00,
2013-02-10 07:19:00,71.9,58.0,30.20,East,95,7.0,15.0,62,0.00,,,0.00,weatherlink.com 1.10,2013-02-10 12:19:00,
2013-02-10 07:34:00,72.0,58.0,30.21,East,98,2.0,15.0,61,0.00,,,0.00,weatherlink.com 1.10,2013-02-10 12:34:00,
2013-02-10 07:49:00,72.6,57.0,30.21,ESE,112,4.0,15.0,59,0.00,,,0.00,weatherlink.com 1.10,2013-02-10 12:49:00,
2013-02-10 08:04:00,73.1,59.0,30.21,East,86,6.0,8.0,61,0.00,,,0.00,weatherlink.com 1.10,2013-02-10 13:04:00,
2013-02-10 08:19:00,73.8,59.0,30.21,ESE,104,5.0,17.0,60,0.00,,,0.00,weatherlink.com 1.10,2013-02-10 13:19:00,
2013-02-10 08:34:00,74.1,59.0,30.21,ESE,107,13.0,17.0,59,0.00,,,0.00,weatherlink.com 1.10,2013-02-10 13:34:00,
2013-02-10 08:49:00,73.2,64.0,30.22,NNE,33,9.0,18.0,72,0.00,,,0.00,weatherlink.com 1.10,2013-02-10 13:49:00,
2013-02-10 09:04:00,72.7,63.0,30.23,East,94,8.0,19.0,72,0.00,,,0.00,weatherlink.com 1.10,2013-02-10 14:04:00,
2013-02-10 09:19:00,72.7,63.0,30.23,ESE,110,7.0,16.0,72,0.00,,,0.00,weatherlink.com 1.10,2013-02-10 14:19:00,
2013-02-10 09:34:00,73.1,60.0,30.24,ESE,106,0.0,15.0,63,0.00,,,0.00,weatherlink.com 1.10,2013-02-10 14:34:00,
2013-02-10 09:49:00,74.8,62.0,30.24,East,90,5.0,14.0,65,0.00,,,0.00,weatherlink.com 1.10,2013-02-10 14:49:00,
2013-02-10 10:04:00,72.7,63.0,30.25,East,93,1.0,22.0,72,0.00,,,0.00,weatherlink.com 1.10,2013-02-10 15:04:00,
2013-02-10 10:19:00,72.2,64.0,30.25,East,92,3.0,12.0,74,0.00,,,0.00,weatherlink.com 1.10,2013-02-10 15:19:00,
2013-02-10 10:34:00,72.0,64.0,30.25,ESE,117,3.0,12.0,76,0.01,,,0.01,weatherlink.com 1.10,2013-02-10 15:34:00,
2013-02-10 10:49:00,72.6,63.0,30.26,ESE,121,1.0,21.0,72,0.01,,,0.01,weatherlink.com 1.10,2013-02-10 15:49:00,
2013-02-10 11:04:00,72.4,63.0,30.26,ESE,112,0.0,13.0,73,0.01,,,0.01,weatherlink.com 1.10,2013-02-10 16:04:00,
2013-02-10 11:19:00,72.4,63.0,30.26,East,85,8.0,14.0,73,0.01,,,0.01,weatherlink.com 1.10,2013-02-10 16:19:00,
2013-02-10 11:35:00,72.9,63.0,30.26,SE,136,0.0,18.0,71,0.00,,,0.01,weatherlink.com 1.10,2013-02-10 16:35:00,
2013-02-10 11:49:00,72.2,63.0,30.25,East,79,9.0,16.0,73,0.00,,,0.01,weatherlink.com 1.10,2013-02-10 16:49:00,
2013-02-10 12:04:00,72.9,63.0,30.25,East,99,3.0,19.0,70,0.00,,,0.01,weatherlink.com 1.10,2013-02-10 17:04:00,
2013-02-10 12:20:00,73.2,62.0,30.24,ESE,116,6.0,21.0,69,0.00,,,0.01,weatherlink.com 1.10,2013-02-10 17:20:00,
2013-02-10 12:34:00,74.3,62.0,30.24,ENE,74,17.0,17.0,66,0.00,,,0.01,weatherlink.com 1.10,2013-02-10 17:34:00,
2013-02-10 12:50:00,74.3,62.0,30.23,East,93,12.0,19.0,66,0.00,,,0.01,weatherlink.com 1.10,2013-02-10 17:50:00,
2013-02-10 13:04:00,73.8,62.0,30.23,East,92,11.0,25.0,67,0.00,,,0.01,weatherlink.com 1.10,2013-02-10 18:04:00,
2013-02-10 13:20:00,73.8,62.0,30.22,ESE,104,9.0,26.0,67,0.00,,,0.01,weatherlink.com 1.10,2013-02-10 18:20:00,
2013-02-10 13:35:00,73.8,62.0,30.22,ESE,108,4.0,22.0,66,0.00,,,0.01,weatherlink.com 1.10,2013-02-10 18:35:00,
2013-02-10 13:50:00,73.8,62.0,30.21,SE,132,14.0,20.0,67,0.00,,,0.01,weatherlink.com 1.10,2013-02-10 18:50:00,
2013-02-10 14:05:00,73.8,62.0,30.21,East,94,11.0,22.0,66,0.00,,,0.01,weatherlink.com 1.10,2013-02-10 19:05:00,
2013-02-10 14:20:00,73.8,62.0,30.21,East,87,9.0,22.0,66,0.00,,,0.01,weatherlink.com 1.10,2013-02-10 19:20:00,
2013-02-10 14:34:00,73.6,62.0,30.21,East,95,10.0,20.0,66,0.00,,,0.01,weatherlink.com 1.10,2013-02-10 19:34:00,
2013-02-10 14:49:00,73.6,62.0,30.20,ESE,111,4.0,18.0,67,0.00,,,0.01,weatherlink.com 1.10,2013-02-10 19:49:00,
2013-02-10 15:04:00,73.8,62.0,30.19,ESE,112,11.0,21.0,66,0.00,,,0.01,weatherlink.com 1.10,2013-02-10 20:04:00,
2013-02-10 15:19:00,74.1,62.0,30.18,ESE,105,5.0,21.0,66,0.00,,,0.01,weatherlink.com 1.10,2013-02-10 20:19:00,
2013-02-10 15:34:00,73.4,62.0,30.19,East,96,17.0,21.0,68,0.00,,,0.01,weatherlink.com 1.10,2013-02-10 20:34:00,
2013-02-10 15:49:00,73.2,62.0,30.18,ESE,107,9.0,23.0,67,0.00,,,0.01,weatherlink.com 1.10,2013-02-10 20:49:00,
2013-02-10 16:04:00,73.2,62.0,30.18,ESE,116,14.0,19.0,67,0.00,,,0.01,weatherlink.com 1.10,2013-02-10 21:04:00,
2013-02-10 16:19:00,73.6,62.0,30.19,East,99,8.0,15.0,67,0.00,,,0.01,weatherlink.com 1.10,2013-02-10 21:19:00,
2013-02-10 16:34:00,73.4,62.0,30.18,East,92,20.0,20.0,67,0.00,,,0.01,weatherlink.com 1.10,2013-02-10 21:34:00,
2013-02-10 16:49:00,73.2,61.0,30.18,East,98,14.0,23.0,66,0.00,,,0.01,weatherlink.com 1.10,2013-02-10 21:49:00,
2013-02-10 17:04:00,73.4,61.0,30.19,SE,129,11.0,17.0,66,0.00,,,0.01,weatherlink.com 1.10,2013-02-10 22:04:00,
2013-02-10 17:19:00,73.2,61.0,30.19,ESE,118,3.0,15.0,66,0.00,,,0.01,weatherlink.com 1.10,2013-02-10 22:19:00,
2013-02-10 17:34:00,73.2,61.0,30.18,SE,140,14.0,17.0,66,0.00,,,0.01,weatherlink.com 1.10,2013-02-10 22:34:00,
2013-02-10 17:49:00,72.9,61.0,30.18,SSE,148,6.0,17.0,66,0.00,,,0.01,weatherlink.com 1.10,2013-02-10 22:49:00,
2013-02-10 18:05:00,72.7,61.0,30.18,SE,127,11.0,15.0,67,0.00,,,0.01,weatherlink.com 1.10,2013-02-10 23:05:00,
2013-02-10 18:19:00,72.6,61.0,30.19,ESE,106,14.0,18.0,66,0.00,,,0.01,weatherlink.com 1.10,2013-02-10 23:19:00,
2013-02-10 18:34:00,72.6,61.0,30.19,East,85,9.0,16.0,66,0.00,,,0.01,weatherlink.com 1.10,2013-02-10 23:34:00,
2013-02-10 18:49:00,72.6,61.0,30.19,East,95,9.0,23.0,66,0.00,,,0.01,weatherlink.com 1.10,2013-02-10 23:49:00,
2013-02-10 19:04:00,72.4,61.0,30.19,East,96,8.0,16.0,67,0.00,,,0.01,weatherlink.com 1.10,2013-02-11 00:04:00,
2013-02-10 19:19:00,72.4,60.0,30.19,SE,133,5.0,18.0,66,0.00,,,0.01,weatherlink.com 1.10,2013-02-11 00:19:00,
2013-02-10 19:34:00,72.4,61.0,30.20,East,85,8.0,16.0,67,0.00,,,0.01,weatherlink.com 1.10,2013-02-11 00:34:00,
2013-02-10 19:49:00,72.6,61.0,30.21,East,94,7.0,12.0,67,0.00,,,0.01,weatherlink.com 1.10,2013-02-11 00:49:00,
2013-02-10 20:05:00,72.6,61.0,30.22,SSE,147,8.0,17.0,67,0.00,,,0.01,weatherlink.com 1.10,2013-02-11 01:05:00,
2013-02-10 20:19:00,72.7,62.0,30.22,ESE,115,6.0,14.0,69,0.00,,,0.01,weatherlink.com 1.10,2013-02-11 01:19:00,
2013-02-10 20:34:00,72.6,61.0,30.22,ESE,117,9.0,13.0,68,0.00,,,0.01,weatherlink.com 1.10,2013-02-11 01:34:00,
2013-02-10 20:50:00,72.7,62.0,30.22,ESE,103,5.0,14.0,68,0.00,,,0.01,weatherlink.com 1.10,2013-02-11 01:50:00,
2013-02-10 21:04:00,72.7,62.0,30.22,ESE,106,5.0,14.0,69,0.00,,,0.01,weatherlink.com 1.10,2013-02-11 02:04:00,
2013-02-10 21:20:00,72.4,62.0,30.22,SE,125,0.0,21.0,69,0.00,,,0.01,weatherlink.com 1.10,2013-02-11 02:20:00,
2013-02-10 21:34:00,72.4,62.0,30.23,SE,136,3.0,15.0,69,0.00,,,0.01,weatherlink.com 1.10,2013-02-11 02:34:00,
2013-02-10 21:49:00,72.2,61.0,30.23,East,96,14.0,14.0,69,0.00,,,0.01,weatherlink.com 1.10,2013-02-11 02:49:00,
2013-02-10 22:04:00,72.4,62.0,30.23,East,99,9.0,16.0,69,0.00,,,0.01,weatherlink.com 1.10,2013-02-11 03:04:00,
2013-02-10 22:19:00,72.4,62.0,30.22,SSE,160,1.0,17.0,69,0.00,,,0.01,weatherlink.com 1.10,2013-02-11 03:19:00,
2013-02-10 22:34:00,72.2,61.0,30.22,ESE,122,4.0,17.0,69,0.00,,,0.01,weatherlink.com 1.10,2013-02-11 03:34:00,
2013-02-10 22:50:00,72.2,61.0,30.21,ESE,121,10.0,18.0,69,0.00,,,0.01,weatherlink.com 1.10,2013-02-11 03:50:00,
2013-02-10 23:04:00,72.2,61.0,30.22,SE,131,7.0,16.0,69,0.00,,,0.01,weatherlink.com 1.10,2013-02-11 04:04:00,
2013-02-10 23:19:00,72.0,61.0,30.22,SSE,161,5.0,14.0,69,0.00,,,0.01,weatherlink.com 1.10,2013-02-11 04:19:00,
2013-02-10 23:34:00,72.0,62.0,30.21,SE,144,6.0,16.0,70,0.00,,,0.01,weatherlink.com 1.10,2013-02-11 04:34:00,
2013-02-10 23:49:00,72.0,62.0,30.21,SE,133,7.0,17.0,70,0.00,,,0.01,weatherlink.com 1.10,2013-02-11 04:49:00,